Hourly Weather Suharevo

Today, 27 January, Wednesday

Time Temperature Precipitation Wind Pressure Humidity
00:00 -4°C° 0.1 mm 8 mps 736 mmHg 91%
01:00 -4°C° 0.1 mm 8 mps 736 mmHg 91%
02:00 -2°C° 0 mm 7 mps 736 mmHg 92%
03:00 -3°C° 0 mm 7 mps 736 mmHg 90%
04:00 -3°C° 0 mm 7 mps 736 mmHg 88%
05:00 -4°C° 0 mm 7 mps 736 mmHg 86%
06:00 -4°C° 0 mm 7 mps 736 mmHg 87%
07:00 -6°C° 0 mm 7 mps 736 mmHg 88%
08:00 -5°C° 0 mm 6 mps 736 mmHg 89%
09:00 -5°C° 0 mm 6 mps 737 mmHg 89%
10:00 -5°C° 0 mm 6 mps 737 mmHg 89%
11:00 -5°C° 0 mm 6 mps 738 mmHg 89%
12:00 -5°C° 0 mm 5 mps 738 mmHg 89%
13:00 -4°C° 0 mm 4 mps 738 mmHg 90%
14:00 -4°C° 0 mm 3 mps 738 mmHg 91%
15:00 -4°C° 0 mm 3 mps 738 mmHg 92%
16:00 -3°C° 0 mm 2 mps 738 mmHg 94%
17:00 -4°C° 0 mm 2 mps 738 mmHg 95%
18:00 -2°C° 0 mm 1 mps 738 mmHg 94%
19:00 -2°C° 0 mm 1 mps 737 mmHg 94%
20:00 -4°C° 0 mm 0 mps 737 mmHg 93%
21:00 -4°C° 0 mm 0 mps 737 mmHg 93%
22:00 -3°C° 0 mm 0 mps 738 mmHg 93%
23:00 -3°C° 0 mm 0 mps 738 mmHg 93%

Tomorrow, 28 January, Thursday

Time Temperature Precipitation Wind Pressure Humidity
00:00 -2°C° 0.2 mm 1 mps 737 mmHg 94%
01:00 -3°C° 0.2 mm 2 mps 737 mmHg 95%
02:00 -4°C° 0.2 mm 3 mps 737 mmHg 95%
03:00 -2°C° 0.3 mm 3 mps 736 mmHg 96%
04:00 -2°C° 0.3 mm 3 mps 736 mmHg 97%
05:00 -1°C° 0.3 mm 3 mps 736 mmHg 98%
06:00 -1°C° 0.4 mm 3 mps 736 mmHg 98%
07:00 -1°C° 0.4 mm 3 mps 736 mmHg 98%
08:00 -1°C° 0.4 mm 4 mps 735 mmHg 98%
09:00 -1°C° 0.3 mm 4 mps 735 mmHg 98%
10:00 -1°C° 0.3 mm 4 mps 735 mmHg 99%
11:00 -1°C° 0.3 mm 4 mps 735 mmHg 99%
12:00 -1°C° 0.4 mm 4 mps 735 mmHg 98%
13:00 -1°C° 0.4 mm 4 mps 734 mmHg 98%
14:00 -1°C° 0.4 mm 4 mps 734 mmHg 98%
15:00 -1°C° 0.2 mm 4 mps 734 mmHg 97%
16:00 -1°C° 0.2 mm 5 mps 734 mmHg 96%
17:00 -1°C° 0.2 mm 5 mps 734 mmHg 96%
18:00 -1°C° 0 mm 5 mps 734 mmHg 95%
19:00 -1°C° 0 mm 5 mps 734 mmHg 95%
20:00 -1°C° 0 mm 5 mps 734 mmHg 95%
21:00 -1°C° 0 mm 5 mps 734 mmHg 95%
22:00 -1°C° 0 mm 5 mps 734 mmHg 95%
23:00 -1°C° 0 mm 5 mps 733 mmHg 96%

Day after tomorrow, 29 January, Friday

Time Temperature Precipitation Wind Pressure Humidity
00:00 -1°C° 0.1 mm 5 mps 733 mmHg 96%
01:00 -1°C° 0.1 mm 4 mps 733 mmHg 97%
02:00 -1°C° 0.1 mm 4 mps 733 mmHg 98%
03:00 -1°C° 0.3 mm 4 mps 732 mmHg 98%
04:00 -1°C° 0.3 mm 4 mps 732 mmHg 98%
05:00 -1°C° 0.3 mm 4 mps 732 mmHg 98%
06:00 -1°C° 0 mm 4 mps 732 mmHg 96%
07:00 -2°C° 0 mm 4 mps 732 mmHg 94%
08:00 -3°C° 0 mm 4 mps 732 mmHg 93%
09:00 -3°C° 0 mm 4 mps 731 mmHg 91%
10:00 -4°C° 0 mm 5 mps 731 mmHg 90%
11:00 -4°C° 0 mm 6 mps 731 mmHg 89%
12:00 -4°C° 0 mm 6 mps 730 mmHg 88%
13:00 -4°C° 0 mm 6 mps 730 mmHg 86%
14:00 -4°C° 0 mm 6 mps 729 mmHg 85%
15:00 -4°C° 0.1 mm 6 mps 729 mmHg 88%
16:00 -4°C° 0.1 mm 6 mps 728 mmHg 91%
17:00 -5°C° 0.1 mm 6 mps 728 mmHg 95%
18:00 -5°C° 0.3 mm 6 mps 727 mmHg 95%
19:00 -5°C° 0.3 mm 5 mps 727 mmHg 95%
20:00 -5°C° 0.3 mm 5 mps 727 mmHg 95%
21:00 -6°C° 0.3 mm 5 mps 727 mmHg 95%
22:00 -6°C° 0.3 mm 5 mps 727 mmHg 94%
23:00 -7°C° 0.3 mm 5 mps 726 mmHg 93%

30 January, Saturday

Time Temperature Precipitation Wind Pressure Humidity
00:00 -7°C° 0.2 mm 5 mps 727 mmHg 93%
01:00 -8°C° 0.2 mm 5 mps 727 mmHg 93%
02:00 -8°C° 0.2 mm 4 mps 727 mmHg 93%
03:00 -9°C° 0 mm 4 mps 727 mmHg 93%
04:00 -10°C° 0 mm 4 mps 727 mmHg 93%
05:00 -10°C° 0 mm 4 mps 728 mmHg 93%
06:00 -10°C° 0 mm 4 mps 728 mmHg 94%
07:00 -10°C° 0 mm 4 mps 729 mmHg 94%
08:00 -10°C° 0 mm 4 mps 729 mmHg 94%
09:00 -10°C° 0 mm 4 mps 729 mmHg 93%
10:00 -9°C° 0 mm 4 mps 730 mmHg 92%
11:00 -8°C° 0 mm 4 mps 730 mmHg 90%
12:00 -8°C° 0 mm 4 mps 730 mmHg 90%
13:00 -8°C° 0 mm 5 mps 730 mmHg 91%
14:00 -7°C° 0 mm 5 mps 730 mmHg 91%
15:00 -7°C° 0 mm 4 mps 730 mmHg 91%
16:00 -7°C° 0 mm 4 mps 730 mmHg 92%
17:00 -7°C° 0 mm 4 mps 729 mmHg 92%
18:00 -7°C° 0.2 mm 4 mps 729 mmHg 93%
19:00 -7°C° 0.2 mm 4 mps 728 mmHg 94%
20:00 -7°C° 0.2 mm 4 mps 727 mmHg 96%
21:00 -6°C° 1 mm 5 mps 726 mmHg 96%
22:00 -6°C° 1 mm 5 mps 725 mmHg 96%
23:00 -5°C° 1 mm 5 mps 724 mmHg 96%

31 January, Sunday

Time Temperature Precipitation Wind Pressure Humidity
00:00 -4°C° 0.9 mm 5 mps 723 mmHg 97%
01:00 -2°C° 0.9 mm 5 mps 722 mmHg 97%
02:00 -1°C° 0.9 mm 5 mps 721 mmHg 98%
03:00 -3°C° 0.3 mm 6 mps 721 mmHg 97%
04:00 -3°C° 0.3 mm 7 mps 721 mmHg 97%
05:00 -3°C° 0.3 mm 7 mps 721 mmHg 97%
06:00 -4°C° 0.2 mm 7 mps 722 mmHg 95%
07:00 -7°C° 0.2 mm 7 mps 723 mmHg 94%
08:00 -9°C° 0.2 mm 7 mps 723 mmHg 93%
09:00 -9°C° 0.1 mm 7 mps 725 mmHg 92%
10:00 -8°C° 0.1 mm 7 mps 726 mmHg 91%
11:00 -8°C° 0.1 mm 8 mps 727 mmHg 90%
12:00 -8°C° 0 mm 8 mps 727 mmHg 88%
13:00 -8°C° 0 mm 8 mps 728 mmHg 87%
14:00 -8°C° 0 mm 8 mps 728 mmHg 86%
15:00 -8°C° 0 mm 8 mps 729 mmHg 87%
16:00 -10°C° 0 mm 8 mps 730 mmHg 88%
17:00 -9°C° 0 mm 7 mps 730 mmHg 89%
18:00 -10°C° 0 mm 8 mps 731 mmHg 89%
19:00 -10°C° 0 mm 8 mps 731 mmHg 89%
20:00 -10°C° 0 mm 8 mps 732 mmHg 89%
21:00 -9°C° 0 mm 7 mps 733 mmHg 89%
22:00 -9°C° 0 mm 7 mps 733 mmHg 90%
23:00 -9°C° 0 mm 7 mps 734 mmHg 90%

1 February, Monday

Time Temperature Precipitation Wind Pressure Humidity
00:00 -10°C° 0 mm 6 mps 735 mmHg 90%
01:00 -10°C° 0 mm 6 mps 735 mmHg 91%
02:00 -10°C° 0 mm 6 mps 736 mmHg 91%
03:00 -10°C° 0 mm 5 mps 736 mmHg 91%
04:00 -10°C° 0 mm 5 mps 737 mmHg 92%
05:00 -10°C° 0 mm 5 mps 737 mmHg 92%
06:00 -10°C° 0 mm 5 mps 738 mmHg 92%
07:00 -11°C° 0 mm 5 mps 738 mmHg 91%
08:00 -10°C° 0 mm 4 mps 739 mmHg 91%
09:00 -10°C° 0 mm 4 mps 739 mmHg 92%
10:00 -10°C° 0 mm 4 mps 739 mmHg 92%
11:00 -9°C° 0 mm 4 mps 739 mmHg 93%
12:00 -8°C° 0 mm 3 mps 739 mmHg 93%
13:00 -8°C° 0 mm 3 mps 739 mmHg 93%
14:00 -7°C° 0 mm 2 mps 739 mmHg 94%
15:00 -8°C° 0 mm 2 mps 739 mmHg 94%
16:00 -9°C° 0 mm 2 mps 739 mmHg 94%
17:00 -10°C° 0 mm 2 mps 739 mmHg 95%
18:00 -12°C° 0 mm 2 mps 739 mmHg 95%
19:00 -12°C° 0 mm 2 mps 739 mmHg 95%
20:00 -12°C° 0 mm 2 mps 739 mmHg 96%
21:00 -12°C° 0 mm 2 mps 739 mmHg 96%
22:00 -12°C° 0 mm 2 mps 739 mmHg 96%
23:00 -12°C° 0 mm 2 mps 739 mmHg 96%
Show more